WetterOnline ( http://www.wetteronline.at )

Wetter aktuell Mannheim

Aktuelles Wetter: Mannheim (100m)

6-stündlich | Neueste Meldungen
Ortszeit Temperatur Wetter
Mi, 22.08. 2:00 18.8° C leicht bewölkt
Di, 21.08. 20:00 28.9° C leicht bewölkt
Di, 21.08. 14:00 28.2° C bewölkt
Di, 21.08. 8:00 21.0° C leicht bewölkt
Di, 21.08. 2:00 21.1° C bedeckt
Mo, 20.08. 20:00 26.7° C wolkenlos
Mo, 20.08. 14:00 26.2° C bedeckt
Mo, 20.08. 8:00 18.0° C fast wolkenlos
Ortszeit Temperatur Wetter
Mi, 22.08. 7:10 17.8° C bedeckt
Mi, 22.08. 7:00 17.3° C leicht bewölkt
Mi, 22.08. 6:50 17.3° C leicht bewölkt
Mi, 22.08. 6:40 17.4° C leicht bewölkt
Mi, 22.08. 6:30 17.5° C leicht bewölkt
Mi, 22.08. 6:20 17.5° C leicht bewölkt
Mi, 22.08. 6:00 17.7° C wolkig
Mi, 22.08. 5:30 18.2° C wolkig
Mi, 22.08. 5:00 18.4° C bedeckt
Mi, 22.08. 4:30 18.5° C bedeckt
Ortszeit Relative Feuchte Sichtweite
Mi, 22.08. 2:00 74% 35 km
Di, 21.08. 20:00 35% 55 km
Di, 21.08. 14:00 40% 60 km
Di, 21.08. 8:00 70% 24 km
Di, 21.08. 2:00 68% 35 km
Mo, 20.08. 20:00 44% 70 km
Mo, 20.08. 14:00 50% 45 km
Mo, 20.08. 8:00 74% 23 km
Ortszeit Relative Feuchte Sichtweite
Mi, 22.08. 7:10 75% -
Mi, 22.08. 7:00 76% 17 km
Mi, 22.08. 6:50 76% -
Mi, 22.08. 6:40 76% -
Mi, 22.08. 6:30 76% 25 km
Mi, 22.08. 6:20 76% -
Mi, 22.08. 6:00 75% 26 km
Mi, 22.08. 5:30 72% 27 km
Mi, 22.08. 5:00 72% 29 km
Mi, 22.08. 4:30 71% 30 km
Ortszeit Niederschlagsmenge Niederschlagsart
Mi, 22.08. 2:00 0.0 l/m2 in 6 Std. -
Di, 21.08. 20:00 0.0 l/m2 in 12 Std. -
Di, 21.08. 14:00 0.0 l/m2 in 6 Std. -
Di, 21.08. 8:00 0.0 l/m2 in 12 Std. -
Di, 21.08. 2:00 0.0 l/m2 in 6 Std. -
Mo, 20.08. 20:00 0.0 l/m2 in 12 Std. -
Mo, 20.08. 14:00 0.0 l/m2 in 6 Std. -
Mo, 20.08. 8:00 0.0 l/m2 in 12 Std. -
Ortszeit Niederschlagsmenge Niederschlagsart
Mi, 22.08. 7:10 keine Meldung -
Mi, 22.08. 7:00 0.0 l/m2 in 1 Std. -
Mi, 22.08. 6:50 keine Meldung -
Mi, 22.08. 6:40 keine Meldung -
Mi, 22.08. 6:30 0.0 l/m2 in 1 Std. -
Mi, 22.08. 6:20 keine Meldung -
Mi, 22.08. 6:00 0.0 l/m2 in 1 Std. -
Mi, 22.08. 5:30 0.0 l/m2 in 1 Std. -
Mi, 22.08. 5:00 0.0 l/m2 in 1 Std. -
Mi, 22.08. 4:30 0.0 l/m2 in 1 Std. -
Ortszeit Stärke Spitze Richtung
km/h Bft. km/h Grad Sektor
Mi, 22.08. 2:00 4 1 14 290° W
Di, 21.08. 20:00 9 2 20 30° NO
Di, 21.08. 14:00 6 1 22 280° W
Di, 21.08. 8:00 7 2 14 350° N
Di, 21.08. 2:00 7 2 18 340° N
Mo, 20.08. 20:00 11 2 22 350° N
Mo, 20.08. 14:00 6 1 19 240° SW
Mo, 20.08. 8:00 9 2 15 170° S
Ortszeit Stärke Spitze Richtung
km/h Bft. km/h Grad Sektor
Mi, 22.08. 7:10 7 2 - 320° NW
Mi, 22.08. 7:00 6 1 9 330° NW
Mi, 22.08. 6:50 6 1 - 330° NW
Mi, 22.08. 6:40 6 1 - 340° N
Mi, 22.08. 6:30 7 2 11 340° N
Mi, 22.08. 6:20 7 2 - 340° N
Mi, 22.08. 6:00 4 1 11 340° N
Mi, 22.08. 5:30 7 2 11 340° N
Mi, 22.08. 5:00 4 1 11 340° N
Mi, 22.08. 4:30 4 1 11 320° NW
Ortszeit Untergrenze Bedeckung Gattung
total tief tief mittel hoch
Mi, 22.08. 2:00 3600 m 5/8 1/8 - - -
Di, 21.08. 20:00 3600 m 2/8 2/8 - - -
Di, 21.08. 14:00 1800 m 7/8 7/8 - - -
Di, 21.08. 8:00 1500 m 4/8 1/8 - - -
Di, 21.08. 2:00 1800 m 8/8 8/8 - - -
Mo, 20.08. 20:00 - 0/8 0/8 - - -
Mo, 20.08. 14:00 1350 m 8/8 8/8 - - -
Mo, 20.08. 8:00 2400 m 1/8 1/8 - - -
Ortszeit Bedeckungsgrad in Achtel und Wolkenuntergrenze
Mi, 22.08. 7:10 9 9 9
Mi, 22.08. 7:00 1(3600m) 5(10500m)
Mi, 22.08. 6:50 1(3600m) 5(10500m)
Mi, 22.08. 6:40 1(3600m) 4(10500m)
Mi, 22.08. 6:30 2(10500m) 5(10500m)
Mi, 22.08. 6:20 2(10500m) 5(10500m)
Mi, 22.08. 6:00 6(10500m) 7(10500m)
Mi, 22.08. 5:30 1(3600m) 5(10500m) 7(10500m)
Mi, 22.08. 5:00 9 9 9
Mi, 22.08. 4:30 1(3600m) 5(10500m) 9
Ortszeit Luftdruck NN (hPa) Tendenz (hPa in 3 Std.)
Mi, 22.08. 2:00 1018 0,0
Di, 21.08. 20:00 1017 - 0,8
Di, 21.08. 14:00 1019 - 1,2
Di, 21.08. 8:00 1020 + 0,4
Di, 21.08. 2:00 1020 + 0,9
Mo, 20.08. 20:00 1018 - 0,3
Mo, 20.08. 14:00 1019 - 0,5
Mo, 20.08. 8:00 1020 + 0,3
Ortszeit Luftdruck NN (hPa) Tendenz (hPa in 3 Std.)
Mi, 22.08. 7:10 1018 keine Meldung
Mi, 22.08. 7:00 1017 0,0
Mi, 22.08. 6:50 1017 keine Meldung
Mi, 22.08. 6:40 1017 keine Meldung
Mi, 22.08. 6:30 1017 - 0,1
Mi, 22.08. 6:20 1017 keine Meldung
Mi, 22.08. 6:00 1017 - 0,3
Mi, 22.08. 5:30 1017 - 0,3
Mi, 22.08. 5:00 1017 - 0,4
Mi, 22.08. 4:30 1017 - 0,5
Ortszeit Schneehöhe (cm)
Mi, 22.08. 2:00 -
Di, 21.08. 20:00 -
Di, 21.08. 14:00 -
Di, 21.08. 8:00 -
Di, 21.08. 2:00 -
Mo, 20.08. 20:00 -
Mo, 20.08. 14:00 -
Mo, 20.08. 8:00 -
Ortszeit Schneehöhe (cm)
Mi, 22.08. 7:10 -
Mi, 22.08. 7:00 -
Mi, 22.08. 6:50 -
Mi, 22.08. 6:40 -
Mi, 22.08. 6:30 -
Mi, 22.08. 6:20 -
Mi, 22.08. 6:00 -
Mi, 22.08. 5:30 -
Mi, 22.08. 5:00 -
Mi, 22.08. 4:30 -
Link zu dieser Seite / Seite empfehlen

Das Wetter in ...